Santa Ana, CA

4:48 AM PDT on April 27, 2017 (GMT -0700)
John Wayne-Orange County

Weather History for KSNA - January, 2014

Change the Weather History Date:

Tuesday, January 14, 2014

  Actual Average Record
Temperature  
Mean Temperature 72 °F 57 °F  
Max Temperature 88 °F 67 °F 88 °F (2014)
Min Temperature 56 °F 47 °F 33 °F (2007)
Degree Days  
Heating Degree Days 0 8  
Month to date heating degree days 71 123  
Since 1 July heating degree days 340 555  
Cooling Degree Days 7 0  
Month to date cooling degree days 8 0  
Year to date cooling degree days 8 0  
Growing Degree Days 22 (Base 50)    
Moisture  
Dew Point 10 °F    
Average Humidity 16    
Maximum Humidity 28    
Minimum Humidity 4    
Precipitation  
Precipitation 0.00 in 0.11 in 0.02 in (2006)
Month to date precipitation 0.00 1.66  
Year to date precipitation 0.00 1.66  
Since 1 July precipitation 1.05  
Snow  
Snow 0.00 in - - ()
Month to date snowfall 0.0  
Year to date snowfall 0.0  
Snow Depth 0.00 in    
Sea Level Pressure  
Sea Level Pressure 30.23 in    
Wind  
Wind Speed 12 mph (ENE)    
Max Wind Speed 23 mph    
Max Gust Speed 37 mph    
Visibility 10 miles    
Events      
T = Trace of Precipitation, MM = Missing Value Source: NWS Daily Summary

Daily Weather History Graph

Daily Weather History Graph

Search for Another Location

Airport or City:

Trip Planner

Search our weather history database for the weather conditions in past years. The results will help you decide how hot, cold, wet, or windy it might be!

Date:

Astronomy

Jan. 14, 2014 Rise Set
Actual Time 6:56 AM PST 5:05 PM PST
Civil Twilight 6:29 AM PST 5:32 PM PST
Nautical Twilight 5:58 AM PST 6:03 PM PST
Astronomical Twilight 5:28 AM PST 6:33 PM PST
Moon 4:13 PM PST (1/14) 5:35 AM PST (1/14)
Length of Visible Light 11h 03m
Length of Day
10h 09m
Waxing Gibbous, 98% of the Moon is Illuminated
Jan 14
Waxing Gibbous
Jan 15
Full
Jan 23
Last Quarter
Jan 30
New
Feb 6
First Quarter

Hourly Weather History & Observations

Time (PST) Temp. Dew Point Humidity Pressure Visibility Wind Dir Wind Speed Gust Speed Precip Events Conditions
12:53 AM 61.0 °F 21.0 °F 21% 30.23 in 10.0 mi Variable 4.6 mph - N/A   Clear
1:53 AM 57.0 °F 24.1 °F 28% 30.24 in 10.0 mi Variable 3.5 mph - N/A   Clear
2:53 AM 73.0 °F 14.0 °F 11% 30.24 in 10.0 mi ENE 16.1 mph 24.2 mph N/A   Clear
3:53 AM 73.0 °F 14.0 °F 11% 30.25 in 10.0 mi East 9.2 mph - N/A   Clear
4:53 AM 73.9 °F 12.9 °F 10% 30.25 in 10.0 mi NE 12.7 mph 27.6 mph N/A   Clear
5:53 AM 73.9 °F 12.9 °F 10% 30.25 in 10.0 mi ENE 17.3 mph 27.6 mph N/A   Partly Cloudy
6:53 AM 73.0 °F 10.9 °F 9% 30.27 in 10.0 mi NNE 12.7 mph 18.4 mph N/A   Partly Cloudy
7:53 AM 75.9 °F 10.0 °F 8% 30.28 in 10.0 mi ENE 12.7 mph 27.6 mph N/A   Clear
8:53 AM 79.0 °F 10.9 °F 8% 30.29 in 10.0 mi ENE 9.2 mph - N/A   Clear
9:53 AM 81.0 °F 9.0 °F 6% 30.29 in 10.0 mi ENE 20.7 mph 29.9 mph N/A   Clear
10:53 AM 84.0 °F 8.1 °F 6% 30.27 in 10.0 mi East 15.0 mph 27.6 mph N/A   Clear
11:53 AM 86.0 °F 7.0 °F 5% 30.24 in 10.0 mi NE 13.8 mph 18.4 mph N/A   Clear
12:53 PM 87.1 °F 3.9 °F 4% 30.20 in 10.0 mi NNE 19.6 mph 29.9 mph N/A   Clear
1:53 PM 87.1 °F 5.0 °F 4% 30.19 in 10.0 mi NE 13.8 mph 27.6 mph N/A   Clear
2:53 PM 87.1 °F 5.0 °F 4% 30.18 in 10.0 mi ENE 12.7 mph - N/A   Clear
3:53 PM 84.9 °F 5.0 °F 5% 30.18 in 10.0 mi NE 16.1 mph 24.2 mph N/A   Clear
4:53 PM 82.0 °F 6.1 °F 6% 30.18 in 10.0 mi ENE 12.7 mph 21.9 mph N/A   Clear
5:53 PM 79.0 °F 7.0 °F 6% 30.19 in 10.0 mi NE 16.1 mph 26.5 mph N/A   Clear
6:53 PM 78.1 °F 7.0 °F 7% 30.20 in 10.0 mi East 8.1 mph - N/A   Clear
7:53 PM 78.1 °F 8.1 °F 7% 30.20 in 10.0 mi East 11.5 mph 18.4 mph N/A   Clear
8:53 PM 79.0 °F 8.1 °F 7% 30.21 in 10.0 mi ENE 15.0 mph 20.7 mph N/A   Clear
9:53 PM 78.1 °F 10.0 °F 7% 30.21 in 10.0 mi ENE 11.5 mph 17.3 mph N/A   Clear
10:53 PM 77.0 °F 10.0 °F 8% 30.21 in 10.0 mi NE 13.8 mph 24.2 mph N/A   Clear
11:53 PM 77.0 °F 10.9 °F 8% 30.19 in 10.0 mi NE 10.4 mph - N/A   Clear